Location: Acequia del Cap
(41.7000°N, 0.6167°E)
Time: 01:38:30
(UTC+00:00)

Cosmos 968 Rocket - Pass Details

Date: 07 August 2020
Orbit: 740 x 771 km, 74.0° (Epoch: 22 September)

Event Time Altitude Azimuth Distance (km) Brightness Sun altitude
Exits shadow 00:19:11 45° 7° (N) 1,005 4.4 -31.8°
Drops below altitude 10° 00:22:44 10° 17° (NNE) 2,261 6.8 -31.8°
Sets 00:25:07 0° 19° (NNE) 3,191 7.8 -31.7°
